Tracking 22287 objects as of 27-Jan-2021
HD Live streaming from Space Station
objects crossing your sky now

STARLINK-1398

Track STARLINK-1398 now!
10-day predictions
STARLINK-1398 is classified as:


NORAD ID: 45699
Int'l Code: 2020-035AU
Perigee: 553.9 km
Apogee: 554.9 km
Inclination: 53.0 °
Period: 95.6 minutes
Semi major axis: 6925 km
RCS: Unknown
Launch date: June 4, 2020
Source: United States (US)
Launch site: AIR FORCE EASTERN TEST RANGE (AFETR)
aabbcc
Your satellite tracking list
Your tracking list is empty




NASA's NSSDC Master Catalog

Two Line Element Set (TLE):
1 45699U 20035AU  21027.58041672  .00003145  00000-0  23003-3 0  9992
2 45699  53.0322 138.3635 0000724  66.1327 293.9738 15.06386040 37731
Source of the keplerian elements: AFSPC